TimeMDT,TemperatureF,Dew PointF,Humidity,Sea Level PressureIn,VisibilityMPH,Wind Direction,Wind SpeedMPH,Gust SpeedMPH,PrecipitationIn,Events,Conditions,WindDirDegrees,DateUTC
12:15 AM,61.5,54.5,78,30.11,10.0,SSW,6.9,-,N/A,Rain-Thunderstorm,Thunderstorms and Rain,210,2013-09-19 06:15:00
12:35 AM,60.4,53.2,77,30.11,10.0,ESE,5.8,-,N/A,Thunderstorm,Thunderstorm,120,2013-09-19 06:35:00
12:55 AM,58.6,54.1,85,30.12,10.0,Calm,Calm,-,N/A,,Mostly Cloudy,0,2013-09-19 06:55:00
1:15 AM,58.8,54.9,87,30.12,10.0,SSE,4.6,-,N/A,,Overcast,150,2013-09-19 07:15:00
1:35 AM,59.2,52.7,79,30.12,10.0,Calm,Calm,-,N/A,Thunderstorm,Overcast,0,2013-09-19 07:35:00
1:55 AM,55.8,52.2,88,30.12,10.0,Calm,Calm,-,N/A,Thunderstorm,Mostly Cloudy,0,2013-09-19 07:55:00
2:15 AM,55.2,52.2,89,30.12,10.0,Calm,Calm,-,N/A,Thunderstorm,Scattered Clouds,0,2013-09-19 08:15:00
2:35 AM,54.7,51.1,88,30.12,10.0,Calm,Calm,-,N/A,Thunderstorm,Clear,0,2013-09-19 08:35:00
2:55 AM,55.4,51.4,87,30.12,10.0,Calm,Calm,-,N/A,,Clear,0,2013-09-19 08:55:00
3:15 AM,52.2,50.0,92,30.12,10.0,Calm,Calm,-,N/A,,Clear,0,2013-09-19 09:15:00
3:35 AM,52.5,51.1,95,30.12,10.0,Calm,Calm,-,N/A,,Scattered Clouds,0,2013-09-19 09:35:00
3:55 AM,51.3,50.4,97,30.12,10.0,Calm,Calm,-,N/A,,Clear,0,2013-09-19 09:55:00
4:15 AM,52.5,50.7,94,30.12,10.0,Calm,Calm,-,N/A,,Mostly Cloudy,0,2013-09-19 10:15:00
4:35 AM,52.7,51.1,94,30.12,10.0,Calm,Calm,-,N/A,,Overcast,0,2013-09-19 10:35:00
4:55 AM,51.4,49.8,94,30.12,10.0,Calm,Calm,-,N/A,,Scattered Clouds,0,2013-09-19 10:55:00
5:15 AM,50.9,49.3,94,30.13,10.0,Calm,Calm,-,N/A,,Scattered Clouds,0,2013-09-19 11:15:00
5:35 AM,51.6,47.8,87,30.14,10.0,Calm,Calm,-,N/A,,Scattered Clouds,0,2013-09-19 11:35:00
5:55 AM,49.6,47.7,93,30.14,10.0,Calm,Calm,-,N/A,,Scattered Clouds,0,2013-09-19 11:55:00
6:15 AM,47.8,45.5,92,30.15,10.0,Calm,Calm,-,N/A,Thunderstorm,Clear,0,2013-09-19 12:15:00
6:35 AM,46.9,45.1,93,30.15,10.0,North,-9999.0,-,N/A,,Clear,0,2013-09-19 12:35:00
6:55 AM,47.5,46.0,95,30.16,10.0,Calm,Calm,-,N/A,,Clear,0,2013-09-19 12:55:00
7:15 AM,47.5,46.0,95,30.17,10.0,Calm,Calm,-,N/A,,Clear,0,2013-09-19 13:15:00
7:35 AM,48.2,46.6,94,30.17,10.0,Calm,Calm,-,N/A,,Scattered Clouds,0,2013-09-19 13:35:00
7:55 AM,50.5,48.6,93,30.18,10.0,Calm,Calm,-,N/A,,Scattered Clouds,0,2013-09-19 13:55:00
8:15 AM,53.4,50.5,90,30.18,10.0,NNW,3.5,-,N/A,,Scattered Clouds,330,2013-09-19 14:15:00
8:35 AM,55.2,50.4,84,30.18,10.0,NNW,3.5,-,N/A,,Scattered Clouds,340,2013-09-19 14:35:00
8:55 AM,56.7,51.4,83,30.19,10.0,Calm,Calm,-,N/A,,Scattered Clouds,0,2013-09-19 14:55:00
9:15 AM,58.3,51.6,78,30.19,10.0,Calm,Calm,-,N/A,,Clear,0,2013-09-19 15:15:00
9:35 AM,61.0,50.2,68,30.19,10.0,NNW,3.5,-,N/A,,Clear,330,2013-09-19 15:35:00
9:55 AM,63.0,51.4,66,30.19,10.0,Calm,Calm,-,N/A,,Clear,0,2013-09-19 15:55:00
10:15 AM,64.8,46.8,52,30.19,10.0,Calm,Calm,-,N/A,,Clear,0,2013-09-19 16:15:00
10:35 AM,66.4,41.4,40,30.19,10.0,Calm,Calm,-,N/A,,Clear,0,2013-09-19 16:35:00
10:55 AM,67.8,41.0,38,30.19,10.0,Calm,Calm,-,N/A,,Clear,0,2013-09-19 16:55:00
11:15 AM,70.0,38.5,32,30.18,10.0,Calm,Calm,-,N/A,,Clear,0,2013-09-19 17:15:00
11:35 AM,72.0,33.1,24,30.18,10.0,North,3.5,-,N/A,,Clear,10,2013-09-19 17:35:00
11:55 AM,73.0,36.3,26,30.18,10.0,North,8.1,-,N/A,,Clear,360,2013-09-19 17:55:00
12:15 PM,72.5,35.2,26,30.18,10.0,North,3.5,-,N/A,,Clear,10,2013-09-19 18:15:00
12:35 PM,73.4,35.2,25,30.17,10.0,Calm,Calm,-,N/A,,Clear,0,2013-09-19 18:35:00
12:55 PM,74.3,41.0,30,30.17,10.0,NW,6.9,-,N/A,,Clear,320,2013-09-19 18:55:00
1:15 PM,74.7,39.0,28,30.16,10.0,NW,3.5,-,N/A,,Clear,320,2013-09-19 19:15:00
1:35 PM,74.1,37.0,26,30.16,10.0,Calm,Calm,-,N/A,,Clear,0,2013-09-19 19:35:00
1:55 PM,75.2,39.4,27,30.15,10.0,Calm,Calm,-,N/A,,Clear,0,2013-09-19 19:55:00
2:15 PM,75.7,39.9,28,30.14,10.0,WNW,8.1,-,N/A,,Clear,300,2013-09-19 20:15:00
2:35 PM,75.9,38.8,26,30.14,10.0,NW,6.9,-,N/A,,Clear,320,2013-09-19 20:35:00
2:55 PM,76.3,39.4,26,30.14,10.0,North,3.5,-,N/A,,Clear,360,2013-09-19 20:55:00
3:15 PM,76.5,37.4,24,30.13,10.0,Calm,Calm,-,N/A,,Clear,0,2013-09-19 21:15:00
3:35 PM,77.4,40.3,26,30.12,10.0,West,5.8,-,N/A,,Scattered Clouds,280,2013-09-19 21:35:00
3:55 PM,74.3,41.7,31,30.12,10.0,NW,4.6,-,N/A,,Mostly Cloudy,320,2013-09-19 21:55:00
4:15 PM,75.4,40.1,28,30.12,10.0,Calm,Calm,-,N/A,,Scattered Clouds,0,2013-09-19 22:15:00
4:35 PM,74.7,38.3,27,30.11,10.0,NNW,4.6,-,N/A,,Clear,340,2013-09-19 22:35:00
4:55 PM,75.4,39.4,27,30.11,10.0,NNW,3.5,-,N/A,,Clear,330,2013-09-19 22:55:00
5:15 PM,74.7,38.8,27,30.11,10.0,North,3.5,-,N/A,,Clear,360,2013-09-19 23:15:00
5:35 PM,72.3,43.9,36,30.11,10.0,Calm,Calm,-,N/A,,Clear,0,2013-09-19 23:35:00
5:55 PM,73.2,41.0,31,30.11,10.0,Calm,Calm,-,N/A,,Mostly Cloudy,0,2013-09-19 23:55:00
6:15 PM,70.5,45.9,41,30.11,10.0,Calm,Calm,-,N/A,,Scattered Clouds,0,2013-09-20 00:15:00
6:35 PM,72.0,44.6,37,30.10,10.0,Calm,Calm,-,N/A,,Scattered Clouds,0,2013-09-20 00:35:00
6:55 PM,68.0,48.2,49,30.11,10.0,Calm,Calm,-,N/A,,Scattered Clouds,0,2013-09-20 00:55:00
7:15 PM,66.2,48.9,54,30.11,10.0,Calm,Calm,-,N/A,,Scattered Clouds,0,2013-09-20 01:15:00
7:35 PM,63.9,48.2,57,30.11,10.0,WSW,5.8,-,N/A,,Scattered Clouds,240,2013-09-20 01:35:00
7:55 PM,63.1,46.0,54,30.12,10.0,Calm,Calm,-,N/A,,Clear,0,2013-09-20 01:55:00
8:15 PM,59.9,48.2,65,30.12,10.0,WSW,3.5,-,N/A,,Clear,240,2013-09-20 02:15:00
8:35 PM,60.4,46.6,60,30.14,10.0,Calm,Calm,-,N/A,,Clear,0,2013-09-20 02:35:00
8:55 PM,57.2,47.1,69,30.15,10.0,SW,4.6,-,N/A,,Clear,220,2013-09-20 02:55:00
9:15 PM,59.2,46.4,63,30.15,10.0,Calm,Calm,-,N/A,,Scattered Clouds,0,2013-09-20 03:15:00
9:35 PM,59.2,46.6,63,30.17,10.0,NW,5.8,-,N/A,,Scattered Clouds,320,2013-09-20 03:35:00
9:55 PM,56.8,46.8,69,30.17,10.0,NNE,3.5,-,N/A,,Clear,30,2013-09-20 03:55:00
10:15 PM,58.5,45.5,62,30.18,10.0,Calm,Calm,-,N/A,,Clear,0,2013-09-20 04:15:00
10:35 PM,56.5,45.5,67,30.18,10.0,Calm,Calm,-,N/A,,Clear,0,2013-09-20 04:35:00
10:55 PM,53.6,46.8,78,30.18,10.0,West,6.9,-,N/A,,Clear,270,2013-09-20 04:55:00
11:15 PM,54.5,44.8,70,30.18,10.0,West,6.9,-,N/A,,Clear,280,2013-09-20 05:15:00
11:35 PM,52.7,45.5,76,30.18,10.0,NNW,4.6,-,N/A,,Clear,330,2013-09-20 05:35:00
11:55 PM,53.1,46.0,77,30.18,10.0,WNW,3.5,-,N/A,,Clear,300,2013-09-20 05:55:00